�N����,����,�~����,�C��,���x,�C��,����,���ϕ���,�ő�u�ԕ���,�ő厞����,���˗�,�I�_���x,�n�����x,�ő啗���N��,DTYPE
"17/07/21","00:10",0.0,26.4,82.6,1005.0,44.5,0.5,1.7,57.1,0.00,23.2,26.1,"00:00:08",1
"17/07/21","00:20",0.0,26.5,81.6,1005.0,6.5,0.7,1.9,16.3,0.00,23.1,26.1,"00:11:36",1
"17/07/21","00:30",0.0,26.5,81.4,1004.8,10.0,0.5,1.3,353.0,0.00,23.1,26.1,"00:28:16",1
"17/07/21","00:40",0.0,26.4,81.6,1004.8,358.6,0.6,1.0,329.4,0.00,23.0,26.1,"00:39:12",1
"17/07/21","00:50",0.0,26.1,82.1,1005.0,340.2,0.8,1.3,347.4,0.00,22.8,25.9,"00:40:08",1
"17/07/21","01:00",0.0,26.1,82.7,1004.8,37.6,0.5,1.6,51.6,0.00,23.0,26.1,"00:59:52",1
"17/07/21","01:10",0.0,26.3,82.2,1004.8,42.1,1.0,2.0,60.1,0.00,23.1,26.0,"01:04:48",1
"17/07/21","01:20",0.0,26.3,82.2,1005.0,341.7,0.3,0.9,34.1,0.00,23.1,26.2,"01:12:40",1
"17/07/21","01:30",0.0,26.0,83.1,1005.0,318.2,0.8,2.4,343.2,0.00,22.9,25.9,"01:20:16",1
"17/07/21","01:40",0.0,25.7,83.9,1004.8,311.1,0.7,1.2,322.1,0.00,22.8,25.9,"01:30:08",1
"17/07/21","01:50",0.0,25.5,84.6,1004.5,319.7,0.8,1.2,341.5,0.00,22.8,25.8,"01:40:16",1
"17/07/21","02:00",0.0,25.3,85.5,1004.5,326.2,0.7,1.4,335.2,0.00,22.7,26.0,"01:55:28",1
"17/07/21","02:10",0.0,25.2,85.7,1004.8,312.1,0.7,1.3,282.4,0.00,22.7,25.8,"02:05:36",1
"17/07/21","02:20",0.0,25.0,86.1,1005.0,286.8,0.3,0.9,266.9,0.00,22.6,25.7,"02:18:16",1
"17/07/21","02:30",0.0,24.8,86.9,1004.5,302.9,0.6,1.2,79.9,0.00,22.5,25.6,"02:25:28",1
"17/07/21","02:40",0.0,24.8,87.1,1004.8,263.5,0.5,1.2,244.1,0.00,22.5,25.7,"02:33:52",1
"17/07/21","02:50",0.0,24.6,87.6,1004.8,290.4,0.5,1.2,298.6,0.00,22.4,25.7,"02:48:24",1
"17/07/21","03:00",0.0,24.6,88.0,1004.5,298.9,1.1,1.8,318.1,0.00,22.5,25.6,"02:57:44",1
"17/07/21","03:10",0.0,24.5,88.1,1004.8,308.7,1.0,1.6,311.5,0.00,22.4,25.7,"03:00:32",1
"17/07/21","03:20",0.0,24.4,88.4,1004.5,281.6,0.5,0.8,313.8,0.00,22.4,25.6,"03:19:44",1
"17/07/21","03:30",0.0,24.2,89.1,1004.3,312.5,0.7,1.3,325.9,0.00,22.3,25.5,"03:22:48",1
"17/07/21","03:40",0.0,24.3,89.5,1004.5,297.3,1.1,1.4,312.5,0.00,22.5,25.4,"03:33:44",1
"17/07/21","03:50",0.0,24.3,89.4,1004.8,277.3,0.7,1.1,305.1,0.00,22.5,25.4,"03:49:36",1
"17/07/21","04:00",0.0,24.4,89.5,1005.0,287.0,0.7,1.2,291.7,0.00,22.6,25.5,"03:57:28",1
"17/07/21","04:10",0.0,24.4,89.4,1004.8,287.3,1.1,1.7,280.1,0.00,22.6,25.4,"04:00:56",1
"17/07/21","04:20",0.0,24.4,89.1,1004.5,293.0,0.7,1.4,342.5,0.00,22.5,25.5,"04:11:36",1
"17/07/21","04:30",0.0,24.3,89.3,1004.8,290.9,0.7,1.7,320.4,0.00,22.5,25.4,"04:27:36",1
"17/07/21","04:40",0.0,24.3,89.6,1004.8,308.4,1.2,1.9,293.1,0.00,22.5,25.4,"04:39:04",1
"17/07/21","04:50",0.0,24.3,89.5,1005.0,315.7,1.0,2.0,323.4,0.00,22.5,25.2,"04:43:12",1
"17/07/21","05:00",0.0,24.2,89.5,1004.8,271.1,0.6,1.0,272.8,0.00,22.4,25.3,"04:52:32",1
"17/07/21","05:10",0.0,24.1,89.7,1005.2,308.7,0.8,1.4,312.6,0.00,22.3,25.4,"05:09:12",1
"17/07/21","05:20",0.0,24.0,90.4,1005.0,297.5,0.8,1.3,327.7,0.00,22.4,25.2,"05:16:24",1
"17/07/21","05:30",0.0,24.2,90.3,1005.2,310.5,0.8,1.6,334.9,0.00,22.5,25.2,"05:21:52",1
"17/07/21","05:40",0.0,24.3,90.5,1005.2,276.6,0.7,1.1,282.2,0.00,22.7,25.4,"05:35:20",1
"17/07/21","05:50",0.0,24.4,90.4,1005.2,295.9,0.7,1.2,308.1,0.00,22.8,25.2,"05:49:36",1
"17/07/21","06:00",0.0,24.6,90.3,1005.5,290.2,0.8,1.3,278.7,0.00,22.9,25.2,"05:56:40",1
"17/07/21","06:10",0.0,24.8,90.2,1005.0,306.2,0.5,1.1,300.8,0.00,23.1,25.2,"06:00:16",1
"17/07/21","06:20",0.0,24.9,89.9,1005.5,311.2,0.2,0.6,277.4,0.01,23.2,25.1,"06:12:00",1
"17/07/21","06:30",0.0,25.4,90.1,1005.0,327.0,1.0,1.2,317.6,0.03,23.7,25.3,"06:20:40",1
"17/07/21","06:40",0.0,25.8,89.1,1005.5,315.7,0.5,1.1,323.6,0.02,23.9,25.2,"06:31:12",1
"17/07/21","06:50",0.0,26.2,87.3,1005.7,4.9,0.6,1.4,16.2,0.02,24.0,25.3,"06:47:12",1
"17/07/21","07:00",0.0,26.7,85.4,1005.7,14.4,0.5,1.2,352.4,0.03,24.1,25.2,"06:56:56",1
"17/07/21","07:10",0.0,27.0,82.8,1005.7,33.2,0.5,1.8,105.6,0.02,23.9,25.2,"07:02:56",1
"17/07/21","07:20",0.0,27.2,82.2,1005.5,339.4,0.6,3.2,29.2,0.04,23.9,25.2,"07:10:08",1
"17/07/21","07:30",0.0,27.6,81.1,1005.5,52.5,0.3,1.3,25.6,0.05,24.1,25.5,"07:20:40",1
"17/07/21","07:40",0.0,27.7,79.7,1005.7,51.7,0.3,1.1,110.9,0.03,23.9,25.5,"07:31:28",1
"17/07/21","07:50",0.0,27.7,80.1,1006.0,73.7,0.3,1.2,102.1,0.04,24.0,25.5,"07:48:32",1
"17/07/21","08:00",0.0,27.9,79.8,1005.7,48.7,0.3,1.8,165.7,0.04,24.1,25.4,"07:50:56",1
"17/07/21","08:10",0.0,28.4,78.8,1006.0,23.8,0.3,1.1,71.8,0.11,24.4,25.6,"08:08:56",1
"17/07/21","08:20",0.0,29.3,74.2,1005.7,63.8,0.7,2.7,58.0,0.21,24.3,25.7,"08:10:40",1
"17/07/21","08:30",0.0,29.9,72.2,1005.2,46.4,0.7,1.8,122.3,0.25,24.4,25.7,"08:24:08",1
"17/07/21","08:40",0.0,30.1,73.4,1006.0,77.7,0.8,2.1,102.1,0.25,24.9,26.1,"08:37:44",1
"17/07/21","08:50",0.0,29.5,72.5,1006.2,51.4,0.8,2.1,23.8,0.15,24.1,26.0,"08:44:48",1
"17/07/21","09:00",0.0,29.6,72.9,1006.0,82.2,0.8,3.4,117.7,0.19,24.3,26.0,"08:50:40",1
"17/07/21","09:10",0.0,29.1,73.8,1006.0,105.9,1.0,2.2,130.2,0.14,24.0,26.2,"09:02:16",1
"17/07/21","09:20",0.0,29.1,73.7,1005.7,101.6,1.0,2.4,174.4,0.11,24.0,25.9,"09:11:52",1
"17/07/21","09:30",0.0,29.0,74.4,1005.5,43.8,1.1,3.5,36.9,0.11,24.0,26.2,"09:25:12",1
"17/07/21","09:40",0.0,29.2,73.1,1005.7,37.7,0.7,1.8,7.3,0.12,23.9,26.3,"09:37:36",1
"17/07/21","09:50",0.0,30.5,71.9,1005.2,52.6,0.7,1.7,45.2,0.30,24.9,26.4,"09:47:36",1
"17/07/21","10:00",0.0,31.2,70.1,1006.2,73.4,1.1,3.9,20.5,0.42,25.1,26.4,"09:56:16",1
"17/07/21","10:10",0.0,31.4,68.7,1006.7,89.1,1.2,2.5,120.0,0.38,25.0,26.6,"10:03:52",1
"17/07/21","10:20",0.0,31.7,66.3,1007.1,136.4,1.7,3.1,129.9,0.49,24.7,26.9,"10:19:36",1
"17/07/21","10:30",0.0,31.5,66.9,1007.4,121.6,1.5,2.6,116.6,0.47,24.6,27.2,"10:23:44",1
"17/07/21","10:40",0.0,31.7,68.1,1007.4,132.7,1.2,2.5,124.1,0.37,25.1,27.1,"10:34:48",1
"17/07/21","10:50",0.0,32.3,66.0,1007.4,77.9,1.2,4.2,61.8,0.41,25.2,27.4,"10:44:16",1
"17/07/21","11:00",0.0,32.2,65.3,1007.1,106.3,1.2,3.2,126.5,0.38,24.9,27.6,"10:50:16",1
"17/07/21","11:10",0.0,31.9,65.8,1007.4,104.9,1.7,3.6,131.1,0.47,24.7,27.7,"11:01:20",1
"17/07/21","11:20",0.0,31.7,65.9,1007.1,91.7,1.5,3.1,36.0,0.36,24.6,27.8,"11:12:00",1
"17/07/21","11:30",0.0,30.9,67.4,1007.1,78.1,1.5,2.6,57.9,0.24,24.2,27.7,"11:24:16",1
"17/07/21","11:40",0.0,31.5,65.9,1006.7,68.8,1.6,3.7,87.0,0.37,24.4,28.2,"11:30:24",1
"17/07/21","11:50",0.0,30.7,68.6,1006.4,51.1,1.5,3.7,36.6,0.13,24.3,28.0,"11:42:56",1
"17/07/21","12:00",0.0,31.4,65.7,1006.0,57.9,1.5,3.3,49.6,0.32,24.2,27.9,"11:52:56",1
"17/07/21","12:10",0.0,31.7,66.5,1006.2,93.2,1.3,3.3,113.8,0.32,24.7,28.1,"12:09:28",1
"17/07/21","12:20",0.0,31.2,67.7,1006.4,88.8,1.6,3.3,115.7,0.25,24.6,28.2,"12:18:32",1
"17/07/21","12:30",0.0,31.6,68.2,1006.2,98.2,1.6,3.5,109.1,0.39,25.1,27.9,"12:22:32",1
"17/07/21","12:40",0.0,31.5,70.3,1006.2,60.8,1.6,3.3,32.9,0.45,25.5,28.2,"12:32:24",1
"17/07/21","12:50",0.0,32.2,67.3,1006.0,66.6,1.5,3.5,39.7,0.63,25.4,28.7,"12:43:36",1
"17/07/21","13:00",0.0,32.3,67.9,1006.2,44.8,1.5,3.2,74.8,0.49,25.7,28.5,"12:51:52",1
"17/07/21","13:10",0.0,32.2,67.5,1005.7,61.4,1.5,2.9,11.3,0.49,25.5,28.7,"13:00:16",1
"17/07/21","13:20",0.0,32.1,64.4,1006.2,57.6,1.7,3.7,1.1,0.50,24.6,28.8,"13:19:42",1
"17/07/21","13:30",0.0,32.8,66.5,1006.2,56.7,1.5,3.4,2.6,0.42,25.8,28.9,"13:22:56",1
"17/07/21","13:40",0.0,33.2,65.0,1006.2,71.8,1.3,3.9,68.1,0.56,25.8,28.8,"13:39:20",1
"17/07/21","13:50",0.0,32.6,64.8,1006.2,70.6,1.8,3.7,88.1,0.57,25.1,28.8,"13:40:40",1
"17/07/21","14:00",0.0,32.5,64.1,1006.2,57.6,1.7,3.9,95.3,0.55,24.9,28.9,"13:52:40",1
"17/07/21","14:10",0.0,33.0,63.1,1006.0,63.2,1.6,4.0,3.2,0.56,25.1,28.9,"14:08:24",1
"17/07/21","14:20",0.0,31.6,65.3,1005.7,58.8,1.8,4.1,14.1,0.26,24.3,29.0,"14:16:32",1
"17/07/21","14:30",0.0,31.2,67.6,1005.7,89.3,1.5,3.1,121.6,0.18,24.5,29.0,"14:27:44",1
"17/07/21","14:40",0.0,31.3,67.8,1005.2,72.9,1.5,3.4,75.6,0.17,24.7,29.1,"14:32:08",1
"17/07/21","14:50",0.0,31.9,67.4,1004.8,65.0,1.0,3.1,44.1,0.23,25.1,28.9,"14:43:52",1
"17/07/21","15:00",0.0,32.8,66.8,1005.0,80.5,1.3,3.9,100.5,0.37,25.9,29.1,"14:54:32",1
"17/07/21","15:10",0.0,33.2,62.8,1005.0,67.4,1.8,4.7,43.6,0.51,25.2,29.2,"15:05:20",1
"17/07/21","15:20",0.0,32.9,64.9,1005.2,52.6,1.6,3.3,50.8,0.36,25.5,29.3,"15:14:40",1
"17/07/21","15:30",0.0,33.4,61.7,1005.2,81.6,1.3,3.4,75.3,0.44,25.1,29.3,"15:29:52",1
"17/07/21","15:40",0.0,32.8,63.9,1005.0,57.3,1.6,3.5,337.8,0.36,25.1,29.2,"15:35:36",1
"17/07/21","15:50",0.0,33.6,62.5,1004.8,111.8,1.1,2.6,109.7,0.40,25.5,29.6,"15:42:40",1
"17/07/21","16:00",0.0,33.7,60.5,1004.8,81.2,1.3,3.4,95.9,0.35,25.0,29.7,"15:50:56",1
"17/07/21","16:10",0.0,34.0,59.1,1004.8,119.1,1.3,3.3,130.1,0.33,24.9,29.6,"16:01:20",1
"17/07/21","16:20",0.0,33.1,59.9,1004.5,103.0,1.5,3.3,147.3,0.17,24.3,29.6,"16:11:36",1
"17/07/21","16:30",0.0,32.7,61.2,1004.5,96.9,1.3,2.9,41.8,0.20,24.3,29.6,"16:23:12",1
"17/07/21","16:40",0.0,32.3,61.7,1004.1,83.5,1.3,4.0,117.7,0.13,24.0,29.7,"16:35:44",1
"17/07/21","16:50",0.0,32.0,63.9,1004.1,99.6,1.5,3.4,41.8,0.08,24.3,29.4,"16:43:44",1
"17/07/21","17:00",0.0,31.8,63.9,1003.6,89.4,1.2,3.4,69.5,0.07,24.2,29.3,"16:55:20",1
"17/07/21","17:10",0.0,31.7,64.6,1003.4,68.1,1.2,3.4,17.8,0.05,24.2,29.3,"17:08:24",1
"17/07/21","17:20",0.0,31.8,63.7,1003.4,72.3,1.7,5.9,17.8,0.09,24.1,29.3,"17:11:44",1
"17/07/21","17:30",0.0,32.5,62.7,1003.6,74.0,1.1,2.6,53.8,0.12,24.5,29.2,"17:29:12",1
"17/07/21","17:40",0.0,33.0,61.9,1003.8,76.0,1.1,2.8,28.6,0.05,24.8,29.2,"17:39:04",1
"17/07/21","17:50",0.0,32.8,61.9,1004.1,76.6,1.1,4.2,29.5,0.04,24.6,29.2,"17:40:32",1
"17/07/21","18:00",0.0,32.3,62.8,1003.8,71.5,1.2,3.3,39.2,0.03,24.3,29.2,"17:54:56",1
"17/07/21","18:10",0.0,31.7,63.6,1004.1,90.7,1.2,2.8,81.5,0.03,24.0,29.2,"18:05:04",1
"17/07/21","18:20",0.0,31.9,63.1,1004.1,87.7,1.3,2.9,26.2,0.04,24.0,28.9,"18:18:00",1
"17/07/21","18:30",0.0,31.6,64.5,1004.1,59.9,1.2,2.7,84.5,0.01,24.1,28.9,"18:21:04",1
"17/07/21","18:40",0.0,30.9,66.4,1003.8,46.9,1.3,2.4,57.3,0.00,23.9,28.8,"18:30:24",1
"17/07/21","18:50",0.0,30.5,67.9,1003.8,46.6,1.5,3.6,9.4,0.00,23.9,28.7,"18:44:08",1
"17/07/21","19:00",0.0,30.2,68.4,1003.4,47.3,1.2,2.6,8.6,0.00,23.8,28.7,"18:55:28",1
"17/07/21","19:10",0.0,29.9,69.6,1003.4,46.2,1.3,3.3,20.9,0.00,23.8,28.5,"19:04:24",1
"17/07/21","19:20",0.0,29.6,70.4,1003.1,75.6,1.1,3.7,70.2,0.00,23.7,28.5,"19:19:04",1
"17/07/21","19:30",0.0,29.5,71.2,1003.1,81.0,0.8,2.4,102.5,0.00,23.8,28.4,"19:24:16",1
"17/07/21","19:40",0.0,29.3,72.0,1003.4,64.3,0.7,2.2,11.7,0.00,23.8,28.3,"19:37:12",1
"17/07/21","19:50",0.0,29.0,73.4,1003.6,34.4,0.5,1.7,17.4,0.00,23.8,28.0,"19:44:08",1
"17/07/21","20:00",0.0,28.8,74.0,1004.3,41.8,0.7,2.8,356.9,0.00,23.7,28.1,"19:52:08",1
"17/07/21","20:10",0.0,28.5,74.6,1004.8,359.2,0.5,1.8,334.4,0.00,23.6,28.0,"20:05:28",1
"17/07/21","20:20",0.0,28.3,75.2,1004.5,11.3,0.7,1.6,325.2,0.00,23.5,27.9,"20:11:12",1
"17/07/21","20:30",0.0,28.2,75.8,1004.5,311.9,0.3,1.4,9.4,0.00,23.6,27.7,"20:26:00",1
"17/07/21","20:40",0.0,28.2,76.2,1004.8,7.6,0.7,1.7,1.3,0.00,23.6,27.7,"20:38:56",1
"17/07/21","20:50",0.0,27.9,77.5,1005.2,325.7,0.7,1.8,352.5,0.00,23.6,27.6,"20:48:08",1
"17/07/21","21:00",0.0,27.5,78.8,1005.2,335.8,0.7,1.6,10.1,0.00,23.5,27.5,"20:51:36",1
"17/07/21","21:10",0.0,27.1,80.4,1005.5,330.3,1.0,1.4,339.3,0.00,23.5,27.5,"21:06:32",1
"17/07/21","21:20",0.0,26.9,81.0,1005.2,339.5,0.6,2.0,4.0,0.00,23.4,27.5,"21:17:28",1
"17/07/21","21:30",0.0,27.1,80.4,1005.7,340.5,0.6,1.2,323.8,0.00,23.5,27.5,"21:22:16",1
"17/07/21","21:40",0.0,27.2,79.9,1005.7,334.3,0.5,1.2,333.7,0.00,23.5,27.5,"21:31:44",1
"17/07/21","21:50",0.0,27.1,79.7,1005.7,333.5,0.5,1.7,52.9,0.00,23.3,27.3,"21:49:20",1
"17/07/21","22:00",0.0,27.3,79.4,1005.7,345.9,0.7,2.0,344.7,0.00,23.5,27.2,"21:51:52",1
"17/07/21","22:10",0.0,27.2,79.6,1005.5,324.6,0.5,1.2,312.6,0.00,23.4,27.2,"22:09:04",1
"17/07/21","22:20",0.0,27.1,80.0,1005.7,338.0,0.7,2.1,37.7,0.00,23.4,27.0,"22:10:48",1
"17/07/21","22:30",0.0,26.8,80.6,1006.0,302.1,0.6,1.1,305.8,0.00,23.2,27.3,"22:24:32",1
"17/07/21","22:40",0.0,26.6,81.4,1005.5,310.5,1.0,2.4,67.6,0.00,23.2,26.9,"22:32:16",1
"17/07/21","22:50",0.0,26.4,82.1,1006.2,284.5,1.0,1.6,336.9,0.00,23.1,26.8,"22:46:40",1
"17/07/21","23:00",0.0,26.2,82.9,1006.0,291.8,0.7,1.4,242.8,0.00,23.1,26.8,"22:51:04",1
"17/07/21","23:10",0.0,26.0,83.7,1006.0,302.5,1.0,1.6,353.1,0.00,23.1,26.7,"23:09:36",1
"17/07/21","23:20",0.0,25.8,84.5,1006.0,290.7,0.8,1.7,339.5,0.00,23.0,26.7,"23:11:44",1
"17/07/21","23:30",0.0,25.7,84.8,1006.2,283.0,0.8,1.3,251.3,0.00,23.0,26.6,"23:21:36",1
"17/07/21","23:40",0.0,25.6,85.6,1006.0,325.3,0.7,1.3,319.1,0.00,23.0,26.6,"23:31:04",1
"17/07/21","23:50",0.0,25.4,86.3,1006.0,295.3,0.6,0.9,297.7,0.00,23.0,26.6,"23:47:28",1
"17/07/21","24:00",0.0,25.3,86.6,1006.0,291.5,0.8,1.2,306.2,0.00,22.9,26.6,"23:51:44",1
